Location: Finch Observatory
(42.1604°N, 72.0115°W)
Time: 11:50:34
(UTC-04:00)

ISS - Visible Passes

Search period start: 23 July 2018 00:00
Search period end: 02 August 2018 00:00
Orbit: 402 x 408 km, 51.6° (Epoch: 23 July)

Date Brightness Start Highest point End Pass type
(mag) Time Alt. Az. Time Alt. Az. Time Alt. Az.
23 Jul -1.1 01:29:21 10° NW 01:30:56 19° NNW 01:30:56 19° NNW visible
23 Jul -2.4 21:22:07 10° W 21:25:14 40° NNW 21:28:22 10° NE visible
23 Jul -0.8 23:00:09 10° NW 23:02:22 17° N 23:04:36 10° NE visible
24 Jul -1.0 00:37:20 10° NW 00:39:34 19° N 00:39:34 19° N visible
24 Jul -1.0 22:07:31 10° WNW 22:10:00 19° NNW 22:12:28 10° NE visible
24 Jul -0.9 23:45:11 10° NW 23:47:23 16° N 23:48:40 14° NE visible
25 Jul -1.4 21:14:52 10° WNW 21:17:38 24° NNW 21:20:25 10° NE visible
25 Jul -0.8 22:52:53 10° NW 22:54:58 16° N 22:57:03 10° NE visible
26 Jul -0.9 00:29:25 10° NW 00:30:32 17° NNW 00:30:32 17° NNW visible
26 Jul -0.9 22:00:23 10° NW 22:02:32 16° N 22:04:41 10° NE visible
26 Jul -1.3 23:37:22 10° NW 23:39:53 20° NNE 23:39:53 20° NNE visible
27 Jul -1.0 21:07:44 10° WNW 21:10:06 18° NNW 21:12:28 10° NE visible
27 Jul -1.1 22:45:14 10° NW 22:47:30 17° N 22:49:17 12° NE visible
28 Jul -0.7 00:21:24 10° NW 00:21:55 13° NW 00:21:55 13° NW visible
28 Jul -1.0 21:52:57 10° NW 21:55:03 16° N 21:57:08 10° NE visible
28 Jul -1.5 23:29:21 10° NW 23:31:20 25° N 23:31:20 25° N visible
29 Jul -1.0 21:00:28 10° NW 21:02:35 16° N 21:04:41 10° NE visible
29 Jul -1.7 22:37:16 10° NW 22:39:56 22° NNE 22:40:47 20° NE visible
30 Jul -1.3 21:45:08 10° NW 21:47:29 18° N 21:49:51 10° ENE visible
30 Jul -1.6 23:21:17 10° NW 23:22:53 25° NW 23:22:53 25° NW visible
31 Jul -1.1 20:52:53 10° NW 20:55:01 16° N 20:57:09 10° NE visible
31 Jul -2.5 22:29:10 10° NW 22:32:12 34° NNE 22:32:22 34° NNE visible
01 Aug -1.9 21:37:03 10° NW 21:39:49 24° NNE 21:41:53 14° ENE visible
01 Aug -1.4 23:13:16 10° WNW 23:14:31 21° WNW 23:14:31 21° WNW visible
